Location: Sternwarte auf dem Internationalen Platz Vogelsang IP
(50.5721°N, 6.4398°E)
Time: 10:29:28
(UTC+01:00)

ACS3 Solar Sail - Pass Details

Date: 15 November 2025
Orbit: 888 x 1003 km, 97.3° (Epoch: 07 December)

Event Time Altitude Azimuth Distance (km) Brightness Sun altitude
Rises 03:14:49 0° 17° (NNE) 3,554 5.2 -42.7°
Reaches altitude 10° 03:17:24 10° 26° (NNE) 2,623 4.5 -42.4°
Enters shadow 03:19:31 21° 38° (NE) 1,940 3.7 -42.1°
